Weather in Yizheng

China     32°16′29″N   119°10′26″E
temp.,
°C
wind,
m/s
gust,
m/s
humid.,
%
clouds,
%
prec.,
mm/h
press.,
hPa
HPBL,
m
18 may, tue
tue1823:00+17ene2269100 0.0 101220
02:00+17s2272100 0.0 101218
05:00+16ssw11766 0.0 101210
08:00+19wnw1169100 0.0 1014314
11:00+22s235999 0.0 10131126
14:00+24s2259100 0.0 10111258
17:00+23s2266100 0.1 1011679
20:00+20sse2279100 0.1 101116
19 may, wed
wed1923:00+18se23855 0.0 101136
02:00+17se2290100 0.0 101136
05:00+17se2492100 0.0 101195
08:00+20se4683100 0.0 1011409
11:00+20ese5678100 0.0 1011485
14:00+19se2480100 0.0 1010144
17:00+18ese2790100 0.9 1008375
20:00+17e4895100 1.8 1009387
20 may, thu
thu2023:00+16e4796100 0.1 1008357
02:00+16ne3697100 0.1 1006337
05:00+16nne2397100 0.0 1006243
08:00+16nne1196100 0.1 1007171
11:00+17nw2393100 0.0 1007363
14:00+18n3489100 0.1 1006559
17:00+18nne2390100 0.1 1006361
20:00+17nne2293100 0.1 100768
21 may, fri
fri2123:00+16nne2293100 0.0 100877
02:00+15s0094100 0.0 100711
05:00+15ne00941 0.0 100711
08:00+19ne2181100 0.0 1009389
11:00+23e21654 0.0 1009829
14:00+26se21540 0.0 10071159
17:00+26ese2156100 0.0 10071163
20:00+21ese3472100 0.0 100850
22 may, sat
sat2223:00+20e3477100 0.0 100979
02:00+19ese3886100 0.0 1008229
05:00+18se389452 0.0 1009217
08:00+22se5776100 0.0 1010370
11:00+26se6761100 0.0 1010890
14:00+27se5758100 0.0 1008989
17:00+23se487499 0.0 1008292
20:00+20se4117825 0.0 1009294